Location: *
(2.5500°S, 65.9667°W)
Time: 16:29:28
(UTC+00:00)

A-11 Canister half - Pass Details

Date: 18 April 2024
Orbit: 1525 x 1683 km, 47.3° (Epoch: 21 May)

Event Time Altitude Azimuth Distance (km) Brightness Sun altitude
Exits shadow 09:05:08 25° 278° (W) 2,828 9.8 -19.6°
Maximum altitude 09:08:34 31° 311° (NW) 2,578 9.8 -18.8°
Drops below altitude 10° 09:16:58 10° 9° (N) 3,898 11.4 -16.7°
Sets 09:20:42 0° 19° (NNE) 4,900 12.1 -15.8°
